GW4569 Weather Reports


time (UTC)temp
C
wind
direction
speed
KPH
gust
KPH
rain 1hr
cm
rain 24hr
cm
rain mn
cm
humidity
%
barometer
mb
20260510180311 24 310 11.3 14.5 0.00 0.00 0.00 43 1018.0
20260510175807 23 354 4.8 11.3 0.00 0.00 0.00 45 1018.1
20260510175306 23 281 6.4 11.3 0.00 0.00 0.00 44 1018.1
20260510174800 23 250 6.4 12.9 0.00 0.00 0.00 44 1018.2
20260510174257 23 350 3.2 4.8 0.00 0.00 0.00 46 1018.3
20260510173753 23 278 1.6 6.4 0.00 0.00 0.00 45 1018.1
20260510173249 22 311 1.6 3.2 0.00 0.00 0.00 48 1018.0
20260510172745 22 301 3.2 3.2 0.00 0.00 0.00 48 1018.2
20260510172241 23 286 4.8 6.4 0.00 0.00 0.00 47 1018.3
20260510171738 22 306 1.6 6.4 0.00 0.00 0.00 48 1018.1
20260510171235 22 310 3.2 9.7 0.00 0.00 0.00 47 1018.3
20260510170732 23 299 3.2 4.8 0.00 0.00 0.00 46 1018.3
20260510170228 24 300 1.6 4.8 0.00 0.00 0.00 42 1018.3
20260510165724 23 280 3.2 4.8 0.00 0.00 0.00 47 1018.2
20260510165220 22 20 3.2 6.4 0.00 0.00 0.00 47 1018.3
20260510164718 23 200 3.2 6.4 0.00 0.00 0.00 44 1018.2
20260510164215 23 284 3.2 9.7 0.00 0.00 0.00 45 1018.3
20260510163710 23 329 4.8 6.4 0.00 0.00 0.00 48 1018.3
20260510163206 22 303 3.2 6.4 0.00 0.00 0.00 47 1018.4
20260510162706 23 343 3.2 4.8 0.00 0.00 0.00 48 1018.2
20260510162203 22 296 1.6 11.3 0.00 0.00 0.00 50 1018.4
20260510161658 23 277 8.0 9.7 0.00 0.00 0.00 49 1018.5
20260510161155 23 291 1.6 4.8 0.00 0.00 0.00 50 1018.4
20260510160652 22 327 1.6 6.4 0.00 0.00 0.00 49 1018.6
20260510160148 22 246 4.8 9.7 0.00 0.00 0.00 50 1018.5
20260510155644 22 291 4.8 6.4 0.00 0.00 0.00 52 1018.4
20260510155139 22 288 3.2 4.8 0.00 0.00 0.00 53 1018.6
20260510154635 21 298 1.6 12.9 0.00 0.00 0.00 57 1018.4
20260510154131 21 295 6.4 6.4 0.00 0.00 0.00 57 1018.5
20260510153627 21 340 3.2 6.4 0.00 0.00 0.00 54 1018.6
20260510153123 20 310 3.2 6.4 0.00 0.00 0.00 58 1018.5
20260510152620 20 326 3.2 4.8 0.00 0.00 0.00 57 1018.7
20260510152116 20 301 3.2 4.8 0.00 0.00 0.00 56 1018.7
20260510151613 20 292 3.2 6.4 0.00 0.00 0.00 60 1018.5
20260510151112 20 288 3.2 9.7 0.00 0.00 0.00 60 1018.6
20260510150611 20 251 3.2 4.8 0.00 0.00 0.00 62 1018.5
20260510150108 19 81 3.2 9.7 0.00 0.00 0.00 60 1018.7
20260510145604 18 255 1.6 3.2 0.00 0.00 0.00 63 1018.6
20260510145101 18 156 3.2 4.8 0.00 0.00 0.00 66 1018.4
20260510144557 18 131 3.2 4.8 0.00 0.00 0.00 66 1018.4
20260510144053 17 291 3.2 4.8 0.00 0.00 0.00 69 1018.4
20260510143548 17 303 3.2 4.8 0.00 0.00 0.00 70 1018.4
20260510143045 17 314 3.2 4.8 0.00 0.00 0.00 69 1018.5
20260510142542 17 37 1.6 4.8 0.00 0.00 0.00 69 1018.4
20260510142039 17 234 0.0 3.2 0.00 0.00 0.00 71 1018.4
20260510141535 17 301 1.6 6.4 0.00 0.00 0.00 71 1018.4
20260510141033 16 286 0.0 3.2 0.00 0.00 0.00 73 1018.5
20260510140529 16 99 0.0 1.6 0.00 0.00 0.00 73 1018.6
20260510140029 16 301 1.6 4.8 0.00 0.00 0.00 75 1018.4
20260510135525 16 206 0.0 1.6 0.00 0.00 0.00 75 1018.7
20260510135021 15 87 1.6 3.2 0.00 0.00 0.00 75 1018.5
20260510134518 15 124 0.0 4.8 0.00 0.00 0.00 76 1018.6
20260510134015 15 17 0.0 1.6 0.00 0.00 0.00 78 1018.6
20260510133511 15 337 0.0 1.6 0.00 0.00 0.00 78 1018.6
20260510133007 14 301 0.0 1.6 0.00 0.00 0.00 80 1018.6
20260510132504 14 301 1.6 1.6 0.00 0.00 0.00 81 1018.6
20260510132001 14 99 0.0 3.2 0.00 0.00 0.00 81 1018.6
20260510131459 13 243 0.0 3.2 0.00 0.00 0.00 81 1018.5
20260510130955 13 98 1.6 4.8 0.00 0.00 0.00 83 1018.6
20260510130452 13 132 0.0 1.6 0.00 0.00 0.00 84 1018.3
20260510125949 13 75 1.6 4.8 0.00 0.00 0.00 84 1018.4
20260510125445 13 320 3.2 4.8 0.00 0.00 0.00 83 1018.6
20260510124942 13 78 0.0 4.8 0.00 0.00 0.00 85 1018.4
20260510124438 12 40 0.0 0.0 0.00 0.00 0.00 88 1018.3
20260510123935 12 42 0.0 1.6 0.00 0.00 0.00 89 1018.3
20260510123431 11 73 1.6 1.6 0.00 0.00 0.00 92 1018.3
20260510122927 10 152 0.0 0.0 0.00 0.00 0.00 95 1018.2
20260510122427 10 299 0.0 0.0 0.00 0.00 0.00 96 1018.1
20260510121924 8 293 0.0 0.0 0.00 0.00 0.00 98 1018.0
20260510121422 8 293 0.0 0.0 0.00 0.00 0.00 98 1017.9
20260510120919 8 293 0.0 0.0 0.00 0.00 0.00 99 1017.9
20260510120416 7 293 0.0 0.0 0.00 0.00 0.00 99 1017.9
20260510115912 7 293 0.0 0.0 0.00 0.00 0.00 99 1018.2
20260510115409 7 293 0.0 0.0 0.00 0.00 0.00 99 1018.1
20260510114904 7 293 0.0 0.0 0.00 0.00 0.00 99 1018.1
20260510114402 6 293 0.0 1.6 0.00 0.00 0.00 99 1017.8
20260510113857 5 293 0.0 0.0 0.00 0.00 0.00 99 1017.8
20260510113353 5 293 0.0 0.0 0.00 0.00 0.00 99 1018.0
20260510112850 5 293 0.0 0.0 0.00 0.00 0.00 99 1017.8
20260510112347 4 293 0.0 0.0 0.00 0.00 0.00 99 1017.8
20260510111843 4 293 0.0 0.0 0.00 0.00 0.00 99 1017.5
20260510111340 4 293 0.0 0.0 0.00 0.00 0.00 99 1017.5
20260510110839 3 293 0.0 0.0 0.00 0.00 0.00 99 1017.4
20260510110337 3 293 0.0 0.0 0.00 0.00 0.00 99 1017.2
20260510105833 3 293 0.0 0.0 0.00 0.00 0.00 99 1017.3
20260510105333 3 293 0.0 0.0 0.00 0.00 0.00 99 1017.3
20260510104829 3 293 0.0 0.0 0.00 0.00 0.00 99 1017.1
20260510104327 3 293 0.0 0.0 0.00 0.00 0.00 99 1017.3
20260510103823 3 293 0.0 0.0 0.00 0.00 0.00 99 1017.1
20260510103320 3 293 0.0 0.0 0.00 0.00 0.00 99 1017.0
20260510102815 3 293 0.0 0.0 0.00 0.00 0.00 99 1017.2
20260510102311 3 293 0.0 0.0 0.00 0.00 0.00 98 1016.8
20260510101808 3 293 0.0 0.0 0.00 0.00 0.00 98 1017.1
20260510101307 3 293 0.0 1.6 0.00 0.00 0.00 98 1016.8
20260510100802 3 293 0.0 0.0 0.00 0.00 0.00 98 1016.8
20260510100300 3 293 0.0 0.0 0.00 0.00 0.00 98 1016.8
20260510095755 3 293 0.0 0.0 0.00 0.00 0.00 98 1016.9
20260510095251 3 293 0.0 0.0 0.00 0.00 0.00 98 1016.7
20260510094750 3 293 0.0 0.0 0.00 0.00 0.00 98 1016.8
20260510094245 3 293 0.0 0.0 0.00 0.00 0.00 98 1016.7
20260510093742 3 293 0.0 0.0 0.00 0.00 0.00 98 1016.5
20260510093239 3 293 0.0 1.6 0.00 0.00 0.00 98 1016.7
20260510092735 3 293 0.0 0.0 0.00 0.00 0.00 98 1016.8
20260510092231 3 293 0.0 0.0 0.00 0.00 0.00 98 1016.5
20260510091727 3 293 0.0 0.0 0.00 0.00 0.00 98 1016.5
20260510091224 3 293 0.0 0.0 0.00 0.00 0.00 98 1016.5
20260510090720 3 293 0.0 0.0 0.00 0.00 0.00 98 1016.4
20260510090217 3 293 0.0 0.0 0.00 0.00 0.00 98 1016.2
20260510085712 3 293 0.0 0.0 0.00 0.00 0.00 98 1016.4
20260510085208 3 293 0.0 0.0 0.00 0.00 0.00 98 1016.5
20260510084704 3 293 0.0 0.0 0.00 0.00 0.00 98 1016.3
20260510084201 3 293 0.0 0.0 0.00 0.00 0.00 98 1016.2
20260510083658 4 293 0.0 0.0 0.00 0.00 0.00 98 1016.1
20260510083155 4 293 0.0 0.0 0.00 0.00 0.00 98 1016.1
20260510082650 4 293 0.0 0.0 0.00 0.00 0.00 98 1015.9
20260510082146 4 293 0.0 0.0 0.00 0.00 0.00 98 1015.8
20260510081641 4 293 0.0 0.0 0.00 0.00 0.00 98 1015.9
20260510081137 3 293 0.0 0.0 0.00 0.00 0.00 98 1015.8
20260510080636 3 293 0.0 0.0 0.00 0.00 0.00 97 1015.9
20260510080133 4 293 0.0 0.0 0.00 0.00 0.00 98 1015.8
20260510075631 4 293 0.0 0.0 0.00 0.00 0.00 98 1015.8
20260510075128 4 293 0.0 0.0 0.00 0.00 0.00 98 1015.8
20260510074625 4 293 0.0 0.0 0.00 0.00 0.00 98 1015.8
20260510074120 4 293 0.0 0.0 0.00 0.00 0.00 97 1015.7
20260510073616 4 293 0.0 0.0 0.00 0.00 0.00 97 1015.7
20260510073114 4 293 0.0 0.0 0.00 0.00 0.00 97 1015.5
20260510072610 4 293 0.0 0.0 0.00 0.00 0.00 97 1015.7
20260510072106 4 293 0.0 0.0 0.00 0.00 0.00 97 1015.7
20260510071602 5 293 0.0 0.0 0.00 0.00 0.00 97 1015.8
20260510071100 5 293 0.0 0.0 0.00 0.00 0.00 97 1015.6
20260510070557 5 293 0.0 0.0 0.00 0.00 0.00 98 1015.7
20260510070054 5 293 0.0 0.0 0.00 0.00 0.00 97 1015.7
20260510065550 5 293 0.0 0.0 0.00 0.00 0.00 97 1015.5
20260510065046 4 293 0.0 0.0 0.00 0.00 0.00 96 1015.5
20260510064543 4 293 0.0 0.0 0.00 0.00 0.00 96 1015.6
20260510064040 5 293 0.0 0.0 0.00 0.00 0.00 96 1015.6
20260510063537 5 293 0.0 0.0 0.00 0.00 0.00 96 1015.6
20260510063034 5 293 0.0 0.0 0.00 0.00 0.00 97 1015.5
20260510062530 5 293 0.0 0.0 0.00 0.00 0.00 97 1015.4
20260510062025 5 293 0.0 0.0 0.00 0.00 0.00 97 1015.3
20260510061522 5 293 0.0 0.0 0.00 0.00 0.00 97 1015.3
20260510061018 5 293 0.0 0.0 0.00 0.00 0.00 97 1015.3
20260510060515 5 293 0.0 0.0 0.00 0.00 0.00 97 1015.4
20260510060011 5 293 0.0 0.0 0.00 0.00 0.00 96 1015.4
20260510055507 5 293 0.0 0.0 0.00 0.00 0.00 96 1015.5
20260510055005 5 293 0.0 0.0 0.00 0.00 0.00 95 1015.5
20260510054501 5 293 0.0 0.0 0.00 0.00 0.00 95 1015.5
20260510053956 6 293 0.0 0.0 0.00 0.00 0.00 96 1015.5
20260510053451 6 293 0.0 0.0 0.00 0.00 0.00 96 1015.5
20260510052947 6 293 0.0 0.0 0.00 0.00 0.00 96 1015.7
20260510052443 6 293 0.0 0.0 0.00 0.00 0.00 95 1015.5
20260510051940 6 293 0.0 0.0 0.00 0.00 0.00 95 1015.5
20260510051436 6 293 0.0 0.0 0.00 0.00 0.00 94 1015.7
20260510050933 6 293 0.0 0.0 0.00 0.00 0.00 94 1015.9
20260510050429 6 293 0.0 0.0 0.00 0.00 0.00 95 1015.9
20260510045927 6 293 0.0 0.0 0.00 0.00 0.00 95 1015.8
20260510045424 6 293 0.0 0.0 0.00 0.00 0.00 95 1015.6
20260510044920 6 293 0.0 0.0 0.00 0.00 0.00 94 1015.8
20260510044417 6 293 0.0 0.0 0.00 0.00 0.00 94 1015.8
20260510043914 6 293 0.0 0.0 0.00 0.00 0.00 94 1015.8
20260510043410 6 293 0.0 0.0 0.00 0.00 0.00 93 1015.8
20260510042908 7 293 0.0 0.0 0.00 0.00 0.00 93 1015.7
20260510042404 7 293 0.0 0.0 0.00 0.00 0.00 93 1015.6
20260510041900 7 293 0.0 0.0 0.00 0.00 0.00 92 1015.7
20260510041357 7 293 0.0 0.0 0.00 0.00 0.00 91 1015.6
20260510040855 7 293 0.0 0.0 0.00 0.00 0.00 91 1015.7
20260510040352 7 293 0.0 0.0 0.00 0.00 0.00 92 1015.7
20260510035847 7 293 0.0 0.0 0.00 0.00 0.00 92 1015.8
20260510035343 7 293 0.0 0.0 0.00 0.00 0.00 91 1015.8
20260510034839 7 293 0.0 0.0 0.00 0.00 0.00 91 1015.8
20260510034337 8 293 0.0 0.0 0.00 0.00 0.00 91 1015.8
20260510033833 8 293 0.0 0.0 0.00 0.00 0.00 91 1015.8
20260510033330 8 293 0.0 0.0 0.00 0.00 0.00 91 1015.8
20260510032827 8 293 0.0 0.0 0.00 0.00 0.00 91 1015.6
20260510032323 8 293 0.0 0.0 0.00 0.00 0.00 91 1015.9
20260510031819 8 293 0.0 1.6 0.00 0.00 0.00 90 1015.7
20260510031315 8 293 0.0 0.0 0.00 0.00 0.00 89 1015.7
20260510030815 8 293 0.0 0.0 0.00 0.00 0.00 89 1015.7
20260510030311 8 293 0.0 0.0 0.00 0.00 0.00 89 1015.5
20260510025809 8 293 0.0 0.0 0.00 0.00 0.00 88 1015.7
20260510025306 8 293 0.0 0.0 0.00 0.00 0.00 88 1015.6
20260510024803 9 293 0.0 0.0 0.00 0.00 0.00 88 1015.6
20260510024300 9 293 0.0 0.0 0.00 0.00 0.00 88 1015.5
20260510023755 9 293 0.0 0.0 0.00 0.00 0.00 88 1015.6
20260510023247 9 293 0.0 0.0 0.00 0.00 0.00 87 1015.7
20260510022744 9 293 0.0 0.0 0.00 0.00 0.00 87 1015.3
20260510022243 9 293 0.0 0.0 0.00 0.00 0.00 87 1015.1
20260510021742 9 293 0.0 0.0 0.00 0.00 0.00 85 1015.4
20260510021241 10 293 0.0 0.0 0.00 0.00 0.00 84 1015.2
20260510020737 10 293 0.0 0.0 0.00 0.00 0.00 84 1015.0
20260510020236 11 293 0.0 0.0 0.00 0.00 0.00 83 1015.0
20260510015733 11 293 0.0 0.0 0.00 0.00 0.00 82 1014.9
20260510015229 10 293 0.0 0.0 0.00 0.00 0.00 85 1015.0
20260510014724 11 293 0.0 0.0 0.00 0.00 0.00 85 1014.8
20260510014222 11 293 0.0 0.0 0.00 0.00 0.00 84 1014.6
20260510013717 11 293 0.0 0.0 0.00 0.00 0.00 82 1014.4
20260510013213 11 293 0.0 0.0 0.00 0.00 0.00 84 1014.3
20260510012708 11 293 0.0 0.0 0.00 0.00 0.00 82 1014.3
20260510012203 11 293 0.0 0.0 0.00 0.00 0.00 81 1014.0
20260510011658 12 293 0.0 0.0 0.00 0.00 0.00 80 1014.2
20260510011154 12 293 0.0 0.0 0.00 0.00 0.00 78 1014.1
20260510010651 12 293 0.0 0.0 0.00 0.00 0.00 77 1014.2
20260510010148 12 293 0.0 0.0 0.00 0.00 0.00 76 1014.0
20260510005644 12 293 0.0 0.0 0.00 0.00 0.00 74 1013.7
20260510005141 13 293 0.0 0.0 0.00 0.00 0.00 73 1014.1
20260510004639 14 293 0.0 0.0 0.00 0.00 0.00 69 1013.8
20260510004137 14 293 0.0 0.0 0.00 0.00 0.00 66 1014.0
20260510003634 15 293 0.0 0.0 0.00 0.00 0.00 67 1013.9
20260510003129 15 293 0.0 0.0 0.00 0.00 0.00 65 1014.1
20260510002629 15 293 0.0 0.0 0.00 0.00 0.00 61 1013.9
20260510002127 15 293 0.0 1.6 0.00 0.00 0.00 61 1014.0
20260510001623 16 293 0.0 0.0 0.00 0.00 0.00 60 1013.7
20260510001122 16 293 0.0 0.0 0.00 0.00 0.00 58 1013.7
20260510000622 16 293 0.0 0.0 0.00 0.00 0.00 58 1013.6
20260510000120 17 293 0.0 0.0 0.00 0.00 0.00 57 1013.3
20260509235616 17 293 0.0 1.6 0.00 0.00 0.00 55 1013.2
20260509235113 17 293 0.0 1.6 0.00 0.00 0.00 54 1013.3
20260509234609 17 269 1.6 1.6 0.00 0.00 0.00 53 1013.3
20260509234107 18 269 1.6 1.6 0.00 0.00 0.00 54 1013.2
20260509233604 18 278 0.0 3.2 0.00 0.00 0.00 53 1012.9
20260509233101 18 290 0.0 3.2 0.00 0.00 0.00 52 1012.8
20260509232557 18 290 0.0 3.2 0.00 0.00 0.00 51 1012.7
20260509232055 18 297 1.6 1.6 0.00 0.00 0.00 51 1012.8
20260509231551 18 295 0.0 3.2 0.00 0.00 0.00 50 1013.1
20260509231049 18 273 3.2 4.8 0.00 0.00 0.00 50 1013.2
20260509230545 18 316 1.6 3.2 0.00 0.00 0.00 49 1012.8
20260509230043 18 293 1.6 3.2 0.00 0.00 0.00 51 1012.9
20260509225538 18 259 3.2 4.8 0.00 0.00 0.00 50 1013.1
20260509225033 19 286 3.2 6.4 0.00 0.00 0.00 49 1013.1
20260509224529 19 281 1.6 3.2 0.00 0.00 0.00 50 1012.8
20260509224026 20 296 3.2 4.8 0.00 0.00 0.00 48 1013.1
20260509223523 19 297 4.8 9.7 0.00 0.00 0.00 47 1013.3
20260509223021 18 292 1.6 3.2 0.00 0.00 0.00 51 1013.2
20260509222517 18 291 3.2 6.4 0.00 0.00 0.00 50 1013.2
20260509222012 19 332 1.6 6.4 0.00 0.00 0.00 48 1013.1
20260509221509 20 288 3.2 3.2 0.00 0.00 0.00 50 1013.2
20260509221005 20 308 3.2 4.8 0.00 0.00 0.00 48 1012.8
20260509220501 20 295 3.2 6.4 0.00 0.00 0.00 46 1012.9
20260509215957 19 288 3.2 6.4 0.00 0.00 0.00 49 1013.2
20260509215452 18 303 3.2 4.8 0.00 0.00 0.00 49 1012.9
20260509214950 19 303 3.2 4.8 0.00 0.00 0.00 49 1013.1
20260509214447 19 304 3.2 4.8 0.00 0.00 0.00 48 1012.9
20260509213943 20 303 1.6 4.8 0.00 0.00 0.00 47 1013.1
20260509213440 20 319 3.2 4.8 0.00 0.00 0.00 46 1012.5
20260509212937 20 319 3.2 4.8 0.00 0.00 0.00 48 1012.7
20260509212434 19 320 4.8 4.8 0.00 0.00 0.00 48 1012.7
20260509211930 19 286 4.8 6.4 0.00 0.00 0.00 49 1012.7
20260509211426 19 318 3.2 4.8 0.00 0.00 0.00 50 1012.5
20260509210923 19 300 1.6 6.4 0.00 0.00 0.00 49 1012.9
20260509210421 19 276 3.2 9.7 0.00 0.00 0.00 51 1012.7
20260509205921 19 282 1.6 6.4 0.00 0.00 0.00 49 1012.5
20260509205420 20 295 1.6 4.8 0.00 0.00 0.00 50 1012.4
20260509204917 20 302 1.6 4.8 0.00 0.00 0.00 47 1012.4
20260509204413 20 313 4.8 6.4 0.00 0.00 0.00 46 1012.5
20260509203910 20 285 3.2 11.3 0.00 0.00 0.00 47 1012.3
20260509203406 19 319 3.2 9.7 0.00 0.00 0.00 46 1012.3
20260509202904 19 298 3.2 6.4 0.00 0.00 0.00 47 1012.3
20260509202359 20 271 8.0 11.3 0.00 0.00 0.00 45 1012.3
20260509201854 20 303 9.7 16.1 0.00 0.00 0.00 44 1012.2
20260509201350 20 287 3.2 11.3 0.00 0.00 0.00 45 1012.0
20260509200847 21 299 9.7 14.5 0.00 0.00 0.00 42 1012.2
20260509200342 22 293 4.8 6.4 0.00 0.00 0.00 42 1012.0
20260509195839 21 299 3.2 11.3 0.00 0.00 0.00 42 1012.0
20260509195339 20 278 3.2 6.4 0.00 0.00 0.00 44 1012.3
20260509194839 19 352 1.6 3.2 0.00 0.00 0.00 45 1012.2
20260509194335 19 17 1.6 4.8 0.00 0.00 0.00 46 1012.2
20260509193832 21 286 4.8 11.3 0.00 0.00 0.00 43 1012.2
20260509193332 21 261 8.0 9.7 0.00 0.00 0.00 39 1011.9
20260509192829 20 284 11.3 12.9 0.00 0.00 0.00 44 1012.3
20260509192325 20 286 3.2 3.2 0.00 0.00 0.00 42 1012.0
20260509191820 21 306 3.2 6.4 0.00 0.00 0.00 39 1012.2
20260509191316 22 303 6.4 9.7 0.00 0.00 0.00 39 1012.3
20260509190812 21 326 3.2 6.4 0.00 0.00 0.00 39 1012.1
20260509190310 21 309 6.4 6.4 0.00 0.00 0.00 40 1012.2
20260509185807 20 291 4.8 9.7 0.00 0.00 0.00 43 1012.2
20260509185306 20 287 3.2 6.4 0.00 0.00 0.00 45 1011.9
20260509184800 21 314 8.0 12.9 0.00 0.00 0.00 41 1012.1
20260509184258 22 284 3.2 6.4 0.00 0.00 0.00 42 1012.3
20260509183754 20 286 3.2 6.4 0.00 0.00 0.00 43 1012.2
20260509183249 20 358 4.8 9.7 0.00 0.00 0.00 43 1012.2
20260509182745 20 359 3.2 4.8 0.00 0.00 0.00 45 1012.2
20260509182243 20 42 3.2 9.7 0.00 0.00 0.00 46 1012.4
20260509181740 20 318 3.2 6.4 0.00 0.00 0.00 45 1012.2
20260509181237 20 270 0.0 4.8 0.00 0.00 0.00 46 1012.2
20260509180734 20 311 1.6 9.7 0.00 0.00 0.00 48 1012.5